When you browse on this site, cookies collect data to enhance your experience and personalize the content and advertising you see.
Visit our Privacy Policy to learn more. By continuing to use the site, you agree to this use of cookies and data.
  • In Latvia
  • List of Countries
  • For 7 days
  • Water Temperature
  • Satellite Maps
  • Weather Map
  • Weather Widgets
  • user-avatar
    Login

    Hourly Weather Hail

    Today, 20 February, Wednesday

    Time Temperature Precipitation Wind Pressure Humidity
    00:00 +8°C° 0 mm 1 mps 663 mmHg 48%
    01:00 +7°C° 0 mm 1 mps 663 mmHg 49%
    02:00 +7°C° 0 mm 1 mps 662 mmHg 51%
    03:00 +6°C° 0 mm 1 mps 662 mmHg 55%
    04:00 +6°C° 0 mm 1 mps 662 mmHg 56%
    05:00 +5°C° 0 mm 1 mps 662 mmHg 58%
    06:00 +5°C° 0 mm 1 mps 662 mmHg 59%
    07:00 +5°C° 0 mm 0 mps 663 mmHg 55%
    08:00 +6°C° 0 mm 0 mps 663 mmHg 51%
    09:00 +7°C° 0 mm 0 mps 664 mmHg 46%
    10:00 +8°C° 0 mm 0 mps 664 mmHg 40%
    11:00 +9°C° 0 mm 0 mps 664 mmHg 34%
    12:00 +10°C° 0 mm 0 mps 664 mmHg 28%
    13:00 +12°C° 0 mm 1 mps 664 mmHg 25%
    14:00 +13°C° 0 mm 1 mps 663 mmHg 22%
    15:00 +14°C° 0 mm 1 mps 663 mmHg 19%
    16:00 +14°C° 0 mm 1 mps 663 mmHg 18%
    17:00 +14°C° 0 mm 1 mps 663 mmHg 18%
    18:00 +14°C° 0 mm 1 mps 663 mmHg 18%
    19:00 +13°C° 0 mm 1 mps 663 mmHg 20%
    20:00 +12°C° 0 mm 1 mps 663 mmHg 23%
    21:00 +12°C° 0 mm 1 mps 663 mmHg 25%
    22:00 +11°C° 0 mm 1 mps 663 mmHg 27%
    23:00 +11°C° 0 mm 1 mps 662 mmHg 29%

    Tomorrow, 21 February, Thursday

    Time Temperature Precipitation Wind Pressure Humidity
    00:00 +10°C° 0 mm 1 mps 662 mmHg 30%
    01:00 +10°C° 0 mm 1 mps 662 mmHg 31%
    02:00 +9°C° 0 mm 1 mps 662 mmHg 32%
    03:00 +9°C° 0 mm 1 mps 661 mmHg 33%
    04:00 +8°C° 0 mm 1 mps 661 mmHg 33%
    05:00 +8°C° 0 mm 1 mps 661 mmHg 34%
    06:00 +8°C° 0 mm 1 mps 661 mmHg 34%
    07:00 +8°C° 0 mm 2 mps 662 mmHg 32%
    08:00 +9°C° 0 mm 3 mps 662 mmHg 31%
    09:00 +11°C° 0 mm 4 mps 663 mmHg 29%
    10:00 +12°C° 0 mm 5 mps 663 mmHg 27%
    11:00 +13°C° 0 mm 5 mps 663 mmHg 25%
    12:00 +15°C° 0 mm 6 mps 663 mmHg 22%
    13:00 +16°C° 0 mm 5 mps 662 mmHg 21%
    14:00 +16°C° 0 mm 5 mps 662 mmHg 20%
    15:00 +17°C° 0 mm 5 mps 661 mmHg 19%
    16:00 +18°C° 0 mm 4 mps 661 mmHg 20%
    17:00 +18°C° 0 mm 3 mps 661 mmHg 20%
    18:00 +17°C° 0 mm 3 mps 661 mmHg 21%
    19:00 +16°C° 0 mm 3 mps 661 mmHg 23%
    20:00 +16°C° 0 mm 3 mps 660 mmHg 25%
    21:00 +14°C° 0 mm 4 mps 660 mmHg 26%
    22:00 +13°C° 0 mm 4 mps 660 mmHg 28%
    23:00 +13°C° 0 mm 3 mps 660 mmHg 30%

    Day after tomorrow, 22 February, Friday

    Time Temperature Precipitation Wind Pressure Humidity
    00:00 +12°C° 0 mm 3 mps 660 mmHg 32%
    01:00 +12°C° 0 mm 3 mps 659 mmHg 34%
    02:00 +12°C° 0 mm 2 mps 659 mmHg 36%
    03:00 +10°C° 0 mm 2 mps 658 mmHg 37%
    04:00 +10°C° 0 mm 2 mps 658 mmHg 38%
    05:00 +9°C° 0 mm 2 mps 658 mmHg 38%
    06:00 +9°C° 0 mm 2 mps 658 mmHg 39%
    07:00 +10°C° 0 mm 2 mps 658 mmHg 34%
    08:00 +13°C° 0 mm 2 mps 659 mmHg 28%
    09:00 +13°C° 0 mm 3 mps 660 mmHg 23%
    10:00 +14°C° 0 mm 3 mps 660 mmHg 20%
    11:00 +15°C° 0 mm 4 mps 660 mmHg 17%
    12:00 +17°C° 0 mm 5 mps 660 mmHg 14%
    13:00 +17°C° 0 mm 5 mps 660 mmHg 14%
    14:00 +17°C° 0 mm 5 mps 659 mmHg 14%
    15:00 +17°C° 0 mm 6 mps 659 mmHg 14%
    16:00 +17°C° 0 mm 5 mps 659 mmHg 15%
    17:00 +16°C° 0 mm 5 mps 659 mmHg 16%
    18:00 +15°C° 0 mm 5 mps 659 mmHg 17%
    19:00 +14°C° 0 mm 4 mps 659 mmHg 18%
    20:00 +14°C° 0 mm 3 mps 659 mmHg 20%
    21:00 +13°C° 0 mm 3 mps 660 mmHg 22%
    22:00 +13°C° 0 mm 2 mps 660 mmHg 24%
    23:00 +12°C° 0 mm 2 mps 659 mmHg 26%

    23 February, Saturday

    Time Temperature Precipitation Wind Pressure Humidity
    00:00 +12°C° 0 mm 1 mps 659 mmHg 28%
    01:00 +11°C° 0 mm 1 mps 659 mmHg 30%
    02:00 +10°C° 0 mm 1 mps 659 mmHg 32%
    03:00 +9°C° 0 mm 0 mps 658 mmHg 34%
    04:00 +8°C° 0 mm 0 mps 658 mmHg 35%
    05:00 +8°C° 0 mm 0 mps 658 mmHg 36%
    06:00 +7°C° 0 mm 0 mps 658 mmHg 37%
    07:00 +9°C° 0 mm 0 mps 659 mmHg 33%
    08:00 +11°C° 0 mm 0 mps 660 mmHg 29%
    09:00 +13°C° 0 mm 1 mps 661 mmHg 25%
    10:00 +14°C° 0 mm 1 mps 661 mmHg 22%
    11:00 +16°C° 0 mm 2 mps 661 mmHg 19%
    12:00 +17°C° 0 mm 3 mps 661 mmHg 16%
    13:00 +18°C° 0 mm 3 mps 661 mmHg 15%
    14:00 +19°C° 0 mm 4 mps 661 mmHg 14%
    15:00 +19°C° 0 mm 5 mps 660 mmHg 12%
    16:00 +19°C° 0 mm 5 mps 660 mmHg 14%
    17:00 +17°C° 0 mm 5 mps 660 mmHg 15%
    18:00 +17°C° 0 mm 4 mps 660 mmHg 16%
    19:00 +16°C° 0 mm 3 mps 660 mmHg 18%
    20:00 +15°C° 0 mm 2 mps 661 mmHg 20%
    21:00 +14°C° 0 mm 1 mps 661 mmHg 21%
    22:00 +14°C° 0 mm 2 mps 661 mmHg 23%
    23:00 +13°C° 0 mm 2 mps 661 mmHg 24%

    24 February, Sunday

    Time Temperature Precipitation Wind Pressure Humidity
    00:00 +13°C° 0 mm 2 mps 661 mmHg 26%
    01:00 +12°C° 0 mm 2 mps 660 mmHg 28%
    02:00 +12°C° 0 mm 1 mps 660 mmHg 30%
    03:00 +11°C° 0 mm 1 mps 660 mmHg 32%
    04:00 +10°C° 0 mm 1 mps 660 mmHg 33%
    05:00 +10°C° 0 mm 1 mps 660 mmHg 34%
    06:00 +10°C° 0 mm 1 mps 660 mmHg 35%
    07:00 +11°C° 0 mm 1 mps 661 mmHg 31%
    08:00 +13°C° 0 mm 1 mps 662 mmHg 27%
    09:00 +14°C° 0 mm 1 mps 663 mmHg 24%
    10:00 +16°C° 0 mm 2 mps 663 mmHg 21%
    11:00 +17°C° 0 mm 3 mps 663 mmHg 19%
    12:00 +19°C° 0 mm 3 mps 663 mmHg 17%
    13:00 +20°C° 0 mm 3 mps 663 mmHg 16%
    14:00 +20°C° 0 mm 4 mps 663 mmHg 15%
    15:00 +21°C° 0 mm 4 mps 662 mmHg 14%
    16:00 +21°C° 0 mm 4 mps 662 mmHg 14%
    17:00 +20°C° 0 mm 5 mps 662 mmHg 15%
    18:00 +20°C° 0 mm 5 mps 662 mmHg 16%
    19:00 +19°C° 0 mm 6 mps 662 mmHg 19%
    20:00 +17°C° 0 mm 7 mps 662 mmHg 21%
    21:00 +16°C° 0 mm 8 mps 662 mmHg 24%
    22:00 +15°C° 0 mm 8 mps 662 mmHg 26%
    23:00 +13°C° 0 mm 8 mps 661 mmHg 27%

    25 February, Monday

    Time Temperature Precipitation Wind Pressure Humidity
    00:00 +12°C° 0 mm 8 mps 661 mmHg 29%
    01:00 +12°C° 0 mm 8 mps 661 mmHg 30%
    02:00 +12°C° 0 mm 8 mps 660 mmHg 30%
    03:00 +11°C° 0 mm 8 mps 660 mmHg 31%
    04:00 +11°C° 0 mm 7 mps 660 mmHg 32%
    05:00 +11°C° 0 mm 7 mps 660 mmHg 32%
    06:00 +11°C° 0 mm 6 mps 660 mmHg 33%
    07:00 +12°C° 0 mm 7 mps 660 mmHg 30%
    08:00 +15°C° 0 mm 8 mps 660 mmHg 28%
    09:00 +16°C° 0 mm 9 mps 661 mmHg 25%
    10:00 +18°C° 0 mm 10 mps 660 mmHg 24%
    11:00 +22°C° 0 mm 11 mps 660 mmHg 23%
    12:00 +24°C° 0 mm 12 mps 660 mmHg 22%
    13:00 +27°C° 0 mm 12 mps 660 mmHg 20%
    14:00 +29°C° 0 mm 11 mps 659 mmHg 18%
    15:00 +32°C° 0 mm 11 mps 659 mmHg 16%
    16:00 +31°C° 0 mm 8 mps 659 mmHg 17%
    17:00 +29°C° 0 mm 6 mps 659 mmHg 18%
    18:00 +28°C° 0 mm 4 mps 658 mmHg 18%
    19:00 +26°C° 0 mm 3 mps 659 mmHg 23%
    20:00 +25°C° 0 mm 2 mps 659 mmHg 27%
    21:00 +23°C° 0 mm 1 mps 659 mmHg 31%
    22:00 +23°C° 0 mm 2 mps 659 mmHg 35%
    23:00 +23°C° 0 mm 2 mps 658 mmHg 39%
    Show more